Location: *
(18.0319°N, 63.0678°W)
Time: 12:02:05
(UTC+00:00)

Daily predictions for brighter satellites

Satellite Brightness Start Highest point End
(mag) Time Altitude Azimuth Time Altitude Azimuth Time Altitude Azimuth
Ariane Rocket 4.4 22:31:17 10° ESE 22:34:28 17° ENE 22:37:39 10° NNE
Okean-O 4.1 22:33:42 10° S 22:37:53 43° W 22:42:05 10° NNW
Cosmos 1269 Rocket 4.3 22:33:10 10° N 22:38:16 48° ENE 22:43:21 10° SSE
Lacrosse 4 Rocket 2.7 22:35:30 10° NNE 22:38:31 20° ENE 22:41:33 10° ESE
Cosmos 1709 Rocket 4.0 22:32:27 10° N 22:38:46 73° E 22:45:06 10° S
DMSP B5D1-3 4.5 22:35:13 10° NNE 22:40:18 79° ESE 22:45:23 10° S
Okean 2 4.0 22:36:37 10° NNE 22:40:20 33° E 22:44:04 10° SSE
Cosmos 1461 3.9 22:39:48 10° SW 22:43:50 49° WNW 22:47:44 10° N
Cosmos 2219 4.1 22:45:49 10° SSE 22:50:33 27° ESE 22:55:20 10° NE
CZ-4 R/B 1.3 22:48:14 10° S 22:52:04 84° WSW 22:55:55 10° NNW
Cosmos 2227 Rocket 3.7 22:50:38 10° SE 22:53:21 14° E 22:54:29 13° E
Cosmos 2360 Rocket 3.0 22:50:41 10° N 22:55:32 29° ENE 23:00:23 10° SE
Meteor 2-9 Rocket 4.2 22:49:57 10° S 22:55:48 77° E 23:01:34 10° N
Delta 198 4.0 22:52:45 10° WSW 22:57:44 75° SSE 23:02:44 15° ENE
Cosmos 1975 Rocket 3.7 22:54:41 10° NNW 22:59:04 61° W 23:03:25 10° S
Cosmos 2074 Rocket 4.5 22:54:31 10° NNE 23:00:09 36° E 23:05:46 10° SSE
GPS 2-14 Rocket1 2.5 22:56:55 10° W 23:00:43 82° N 23:03:20 19° ENE
Cosmos 2297 Rocket 3.3 23:00:31 10° SSE 23:04:31 20° ESE 23:07:34 13° ENE
PSLV R/B 4.1 23:04:33 10° WSW 23:07:03 36° NW 23:09:19 12° NNE
Cosmos 1544 3.0 23:06:26 10° S 23:09:56 54° E 23:13:25 10° NNE
Cosmos 405 2.8 23:06:47 10° N 23:10:13 61° E 23:13:38 10° SSE
Okean 1 Rocket 3.1 23:06:06 10° SSE 23:10:16 50° E 23:14:27 10° NNE
SL-16 R/B 2.8 23:07:54 10° NNW 23:13:28 59° WSW 23:19:00 10° S
Cosmos 1441 Rocket 3.1 23:11:29 10° S 23:15:21 73° E 23:19:11 10° N
Cosmos 1371 Rocket 4.4 23:15:13 10° SSE 23:20:02 38° E 23:24:54 10° NNE
CZ-3 Stage 3 0.9 23:18:10 10° WSW 23:24:25 67° SSE 23:24:58 51° E
Cosmos 2084 Rocket 4.0 23:20:43 10° S 23:24:47 37° ESE 23:25:05 36° ESE
SAR-Lupe-2 4.4 23:25:13 10° N 23:28:41 51° WNW 23:32:07 10° SSW
GP-B 3.0 23:24:57 10° N 23:29:24 90° W 23:33:50 10° S
Cosmos 1939 Rocket 2.6 23:26:00 10° SSE 23:29:54 85° ENE 23:33:45 10° N
COSMOS 2455 3.7 23:26:27 10° N 23:31:34 29° ENE 23:31:49 29° ENE
Aurora 2 Rocket 4.2 23:23:54 10° WSW 23:33:59 68° SSE 23:37:59 32° E
Cosmos 2333 Rocket 3.9 23:30:18 10° NNE 23:32:33 17° NE 23:32:33 17° NE
GEOS 3 Rocket 4.4 23:35:47 30° ENE 23:35:51 30° ENE 23:40:16 10° N
Cosmos 2184 Rocket 3.9 23:29:55 10° N 23:36:10 80° E 23:42:30 10° S
Genesis I 3.3 23:34:15 10° NNW 23:37:36 53° NE 23:37:36 53° NE
Fermi 4.4 23:35:47 10° WNW 23:39:37 41° NNE 23:39:55 40° NNE
Cosmos 2251 Rocket 3.6 23:39:28 10° N 23:44:44 55° ENE 23:45:15 53° E
MOS 1 4.2 23:42:18 32° SE 23:44:54 63° ENE 23:50:31 10° N
Lacrosse 5 rocket 1.5 23:44:34 10° SW 23:47:23 53° SW 23:47:23 53° SW
Cosmos 1536 Rocket 4.0 23:45:00 10° NNW 23:49:14 58° W 23:53:13 12° S
Cosmos 1025 Rocket 3.4 23:51:00 10° NNW 23:55:12 60° W 23:56:53 33° SSW
